Wind_Speed
60 59 57 56 57 55 53 51 48 44 40 40 42 43 43 43 42 41 40 41 44 46 48 49 51 54 57 58 56 54 52 51 49 48 46 46 45 44
55 54 52 50 48 45 44 42 40 37 33 33 34 34 34 33 31 29 29 29 31 31 30 33 39 45 49 49 49 49 49 48 47 47 47 46 43 40
46 44 42 40 38 37 36 35 33 31 28 27 27 28 28 28 28 27 25 25 23 19 22 27 31 35 37 37 39 42 44 45 44 42 40 38 36 35
34 33 32 32 31 30 30 28 27 26 25 24 24 23 24 25 26 25 23 22 19 17 21 25 27 29 31 31 31 32 34 33 31 29 29 30 32 33
28 28 29 29 29 28 27 25 23 23 23 24 24 23 22 23 23 22 21 21 20 23 25 26 28 30 31 31 31 31 31 28 26 26 28 30 32 32
26 26 24 23 22 21 20 21 21 21 19 21 21 19 19 18 18 19 20 21 23 28 28 27 31 32 33 33 34 32 30 26 26 28 29 29 29 28
20 18 16 17 17 15 14 13 14 15 15 15 16 15 14 15 16 17 20 22 24 30 27 22 24 25 25 27 28 28 28 27 27 26 24 24 23 23
12 12 13 14 14 12 9 8 7 8 10 11 11 12 12 13 14 18 19 21 22 27 24 19 21 24 23 22 23 24 25 24 22 21 20 19 19 20
9 10 11 12 11 11 7 4 5 6 9 10 11 11 12 12 14 16 17 18 21 26 23 20 22 23 23 23 22 21 20 19 18 17 17 17 16 15
10 10 9 10 11 11 7 2 4 7 9 10 9 11 14 16 17 18 18 17 20 24 23 21 22 22 23 22 21 19 17 16 16 15 15 14 12 9
11 11 11 11 10 9 5 2 2 6 9 11 12 13 16 19 21 20 18 17 20 23 21 20 20 20 20 20 19 18 17 16 15 14 14 12 9 7
13 13 13 13 11 8 4 1 3 4 7 10 12 14 17 23 24 23 20 20 22 22 20 19 18 16 15 16 17 18 16 14 13 11 9 10 10 8
13 13 11 11 8 6 4 3 4 6 7 8 10 14 19 23 24 23 20 20 21 20 18 16 16 16 15 16 17 16 13 10 9 13 15 13 10 9
13 12 11 8 3 5 8 7 6 6 8 10 11 14 16 18 18 17 17 17 17 17 16 16 16 16 16 16 13 11 10 15 19 19 16 13 12 12
15 12 10 7 3 4 8 9 10 9 10 12 13 14 15 16 16 17 16 15 13 15 16 16 14 13 14 13 14 16 20 23 20 17 15 15 15 15
16 14 10 7 3 2 6 9 11 11 12 14 17 18 18 17 17 16 15 14 13 14 16 15 13 13 13 14 19 24 25 22 18 16 16 17 17 18
15 14 12 10 7 5 6 8 8 9 10 12 17 21 21 21 19 18 16 16 15 16 16 15 12 11 13 20 27 28 25 21 19 18 18 18 18 18
11 12 12 13 12 10 9 8 8 8 8 10 13 18 21 21 20 18 17 17 18 19 19 17 16 17 19 24 30 29 25 22 21 19 18 17 16 15
8 8 10 13 15 15 13 11 10 9 10 10 13 16 19 20 20 19 19 19 20 21 21 22 25 26 25 24 25 25 24 23 23 20 16 14 13 13
6 5 6 11 16 18 17 15 13 12 12 13 15 17 18 20 20 20 19 18 19 21 23 26 30 32 31 27 23 20 19 23 23 19 15 12 11 11
4 3 3 7 14 19 20 20 18 16 15 15 16 17 18 19 19 20 20 20 21 23 26 28 30 31 31 29 26 22 21 21 20 17 14 12 11 10
5 4 3 3 11 18 22 24 24 22 20 19 18 18 18 18 19 20 21 22 23 25 27 28 29 29 30 30 29 27 24 22 19 16 14 13 11 10
10 9 8 3 7 15 22 25 27 27 25 24 22 21 20 19 20 21 22 23 25 26 28 28 28 27 28 28 29 29 26 22 19 15 13 12 10 9
Wind_Direction
286 285 284 284 283 280 278 277 277 275 267 257 254 255 257 259 262 263 263 264 262 259 255 249 242 238 238 239 239 241 243 246 249 253 257 261 264 265
286 285 284 284 283 280 279 278 279 276 264 255 255 254 255 257 257 256 260 262 264 261 248 237 232 232 234 237 236 237 240 243 247 252 256 260 262 262
288 287 286 285 284 282 281 280 278 273 263 254 252 252 252 252 251 255 259 260 262 251 225 221 223 226 231 236 236 238 242 245 248 251 253 254 254 257
287 286 286 285 286 283 280 276 272 268 260 251 245 246 249 251 253 257 256 252 240 222 206 209 215 218 224 229 233 235 238 239 237 238 241 245 249 252
289 290 290 289 288 284 276 270 265 264 256 243 240 244 248 252 253 252 245 235 220 201 190 196 207 210 209 210 211 217 223 225 227 232 239 244 247 250
297 298 298 295 292 286 274 265 261 260 251 238 239 240 244 246 247 239 227 218 210 198 189 191 195 194 194 198 207 218 226 228 230 235 239 244 248 251
299 300 303 304 301 292 277 264 258 251 238 233 231 231 232 234 230 218 213 214 212 204 193 184 184 181 182 187 201 214 221 226 230 234 239 245 248 251
300 303 310 316 316 310 287 265 252 241 223 211 210 213 215 216 210 204 206 211 213 209 197 183 182 184 189 194 203 210 216 223 230 235 238 244 252 258
311 313 318 328 342 342 329 272 233 218 202 201 214 210 204 198 193 192 196 201 205 202 193 178 180 185 192 200 207 213 221 228 231 232 239 250 259 264
317 311 312 326 344 348 342 297 213 205 200 199 201 203 196 189 184 180 184 195 199 195 187 180 182 188 195 202 207 211 218 222 228 237 248 255 254 237
318 306 300 309 327 341 358 7 206 200 192 192 194 191 189 187 183 180 182 183 183 186 186 186 192 200 204 207 210 213 219 225 235 247 251 242 212 180
327 314 300 295 298 304 312 53 97 151 171 181 188 189 187 182 179 177 178 176 178 186 191 198 203 205 208 212 216 217 222 234 247 247 215 176 156 150
339 336 325 309 288 261 227 176 125 125 141 153 161 171 177 177 176 175 174 175 181 191 202 206 202 204 209 211 212 216 227 235 206 165 149 146 144 141
321 333 343 343 301 218 205 197 179 163 154 150 150 154 162 167 171 176 179 182 188 197 203 203 205 211 212 207 202 200 192 166 151 146 145 142 140 139
294 304 322 339 355 187 190 192 193 190 183 178 172 167 164 163 165 169 171 177 188 197 199 202 210 210 202 191 174 163 154 148 146 145 142 140 140 137
285 279 282 294 287 179 172 174 178 186 193 196 192 187 181 178 178 180 188 199 206 204 201 203 200 187 178 173 162 154 149 147 146 143 142 141 139 136
283 270 258 251 244 218 190 180 182 190 194 192 191 190 191 193 197 204 210 212 202 188 179 173 166 167 170 165 156 152 151 149 145 142 142 141 138 137
293 272 253 236 229 220 206 194 187 181 179 177 177 183 189 195 200 203 198 189 177 166 157 153 153 157 162 165 160 155 153 149 145 142 141 141 141 144
314 285 252 232 222 216 209 200 190 178 166 161 163 166 172 176 177 177 174 170 163 160 159 159 157 155 157 163 162 159 155 151 147 142 141 145 151 159
328 311 261 226 216 211 206 202 196 185 171 158 153 155 157 160 162 163 165 165 165 167 168 167 163 159 159 160 162 163 161 154 148 144 144 148 156 162
337 334 295 226 209 203 198 195 194 188 179 166 156 151 152 154 158 162 165 166 167 167 167 167 165 163 161 159 158 159 158 153 147 145 145 145 150 153
30 31 7 233 201 196 192 189 188 187 183 176 167 160 156 155 155 157 160 162 165 166 165 166 167 167 167 164 160 159 159 157 154 151 148 147 146 144
46 46 41 57 186 189 189 186 185 185 184 181 176 171 166 163 160 159 160 162 164 166 166 167 169 173 175 172 167 163 162 161 159 157 154 152 149 147
Height
5590 5586 5582 5579 5575 5572 5570 5569 5570 5572 5575 5575 5576 5579 5582 5585 5588 5591 5593 5594 5595 5597 5600 5606 5614 5622 5630 5637 5647 5656 5663 5669 5674 5678 5681 5684 5686 5688
5574 5570 5568 5565 5562 5559 5558 5556 5556 5556 5560 5564 5566 5569 5572 5575 5578 5580 5583 5584 5585 5586 5590 5595 5602 5611 5619 5628 5637 5645 5652 5659 5664 5668 5671 5674 5676 5678
5561 5558 5555 5552 5550 5548 5547 5546 5546 5547 5550 5555 5557 5560 5563 5566 5570 5572 5574 5576 5577 5579 5583 5589 5596 5605 5613 5621 5629 5636 5643 5649 5654 5658 5661 5664 5666 5669
5551 5548 5546 5544 5541 5539 5538 5537 5538 5539 5542 5546 5549 5552 5555 5558 5562 5564 5566 5568 5571 5575 5580 5586 5593 5601 5609 5616 5623 5629 5635 5640 5645 5649 5653 5656 5658 5660
5544 5542 5539 5536 5533 5531 5530 5530 5531 5532 5534 5538 5541 5544 5548 5551 5554 5557 5559 5563 5567 5572 5578 5585 5591 5597 5604 5611 5618 5624 5629 5634 5639 5642 5645 5648 5650 5652
5538 5535 5531 5528 5525 5523 5523 5523 5524 5525 5527 5530 5534 5538 5541 5545 5548 5551 5554 5559 5564 5569 5574 5581 5587 5592 5599 5606 5613 5619 5624 5628 5632 5636 5639 5641 5643 5644
5532 5529 5526 5523 5521 5518 5518 5518 5518 5520 5522 5526 5529 5533 5537 5541 5544 5547 5551 5556 5561 5566 5571 5577 5583 5590 5595 5602 5609 5615 5620 5624 5627 5630 5633 5635 5636 5638
5528 5526 5524 5521 5518 5515 5514 5514 5515 5517 5519 5523 5526 5530 5534 5538 5541 5545 5549 5554 5560 5564 5570 5576 5582 5588 5594 5600 5606 5611 5616 5619 5623 5625 5627 5629 5630 5631
5526 5524 5522 5519 5517 5514 5513 5513 5514 5516 5518 5521 5524 5528 5532 5536 5540 5544 5549 5553 5558 5563 5570 5576 5582 5588 5593 5598 5603 5608 5612 5615 5618 5620 5622 5624 5625 5626
5525 5522 5520 5519 5516 5515 5513 5513 5513 5515 5517 5520 5523 5527 5531 5535 5539 5544 5548 5553 5558 5565 5571 5576 5581 5587 5592 5596 5601 5605 5608 5611 5614 5616 5618 5619 5621 5622
5523 5521 5519 5518 5516 5515 5514 5513 5514 5515 5516 5519 5522 5526 5530 5534 5539 5544 5549 5554 5560 5566 5572 5576 5581 5585 5590 5594 5598 5602 5605 5608 5610 5613 5614 5616 5618 5620
5521 5519 5517 5515 5515 5515 5515 5515 5515 5515 5517 5519 5522 5525 5529 5533 5538 5543 5549 5556 5562 5567 5571 5576 5580 5584 5588 5591 5595 5599 5602 5605 5607 5609 5611 5614 5617 5619
5519 5517 5514 5513 5512 5514 5515 5516 5517 5518 5519 5521 5524 5527 5530 5534 5539 5544 5550 5557 5563 5567 5571 5575 5579 5583 5586 5589 5593 5597 5600 5602 5604 5607 5610 5614 5616 5618
5517 5516 5514 5512 5511 5512 5515 5516 5518 5520 5522 5524 5527 5530 5533 5538 5542 5547 5552 5557 5562 5566 5570 5574 5577 5581 5584 5588 5591 5594 5597 5600 5604 5607 5611 5613 5616 5618
5513 5513 5513 5512 5512 5512 5514 5516 5518 5520 5523 5525 5529 5532 5535 5540 5544 5548 5553 5557 5561 5564 5568 5572 5576 5579 5582 5586 5589 5593 5597 5601 5605 5608 5611 5614 5616 5619
5508 5509 5510 5511 5512 5512 5514 5516 5518 5520 5522 5524 5528 5532 5536 5540 5544 5549 5553 5557 5560 5563 5567 5571 5574 5578 5581 5584 5588 5593 5598 5602 5606 5609 5612 5615 5617 5620
5502 5503 5505 5508 5510 5512 5513 5515 5517 5519 5520 5522 5525 5530 5534 5539 5543 5547 5551 5555 5558 5561 5565 5569 5573 5577 5580 5584 5588 5594 5599 5603 5607 5610 5614 5617 5619 5621
5497 5497 5499 5502 5505 5509 5512 5514 5516 5518 5520 5522 5524 5528 5532 5536 5541 5545 5548 5552 5556 5560 5564 5569 5573 5578 5583 5586 5589 5594 5599 5604 5608 5612 5616 5618 5620 5623
5494 5493 5494 5496 5500 5504 5508 5512 5514 5517 5520 5522 5525 5528 5531 5535 5539 5543 5547 5551 5555 5559 5564 5569 5573 5579 5585 5590 5594 5598 5601 5605 5609 5613 5617 5620 5622 5624
5491 5490 5489 5491 5494 5499 5504 5508 5512 5516 5519 5523 5526 5529 5532 5535 5539 5543 5547 5551 5556 5561 5565 5569 5573 5578 5584 5591 5597 5601 5604 5607 5611 5615 5618 5620 5622 5624
5488 5487 5487 5487 5490 5494 5499 5505 5509 5514 5518 5522 5526 5530 5533 5536 5540 5544 5548 5553 5557 5562 5567 5572 5577 5582 5587 5591 5596 5602 5606 5610 5613 5616 5618 5621 5623 5624
5486 5486 5485 5485 5486 5490 5495 5500 5506 5511 5516 5521 5526 5530 5534 5538 5541 5545 5549 5554 5559 5564 5569 5575 5580 5585 5589 5592 5596 5601 5606 5611 5614 5616 5619 5621 5623 5625
5486 5485 5484 5484 5484 5487 5492 5497 5503 5508 5514 5519 5525 5530 5535 5539 5543 5546 5550 5555 5560 5565 5570 5576 5582 5586 5590 5594 5597 5601 5606 5611 5614 5617 5620 5621 5623 5625